Back to Top

Language: 

My Weather Underground Personal Weather Station Historical Data with Graphs...

Delerius Weather Station Historical Data
Daily Summary for September 8, 2017 Units:  Metric    English   Both
« Previous Day
Next Day »
Daily Weekly Monthly Yearly Custom
  High: Low: Average:
Temperature: 18.3 °C 11.6 °C 14.2 °C
Dew Point: 12.8 °C 9.6 °C 11.2 °C
Humidity: 93 % 60 % 82 %
Wind Speed: 24.1 km/h 0 km/h 11.4 km/h
Wind Gust: 40.2 km/h - -
Wind:- - West
Pressure: 1000.9 hPa 993.5 hPa -
Precipitation: 4.32 mm    
Historical Graphs
 
 
Tabular Data for September 8, 2017
Time Temperature Dew Point Pressure Wind Wind Speed Wind Gust Humidity Rainfall Rate (Hourly) solar Conditions
00:01 15.4 °C 12.7 °C 1000.9 hPa WSW 9.7 km/h 19.3 km/h 84 % 0 mm 0 W/m2
00:06 15.4 °C 12.7 °C 1000.9 hPa SW 8 km/h 17.7 km/h 84 % 0 mm 0 W/m2
00:11 15.4 °C 12.7 °C 1000.9 hPa SW 9.7 km/h 17.7 km/h 84 % 0 mm 0 W/m2
00:16 15.4 °C 12.7 °C 1000.9 hPa SW 9.7 km/h 17.7 km/h 84 % 0 mm 0 W/m2
00:21 15.4 °C 12.7 °C 1000.6 hPa SW 9.7 km/h 17.7 km/h 84 % 0 mm 0 W/m2
00:26 15.4 °C 12.7 °C 1000.6 hPa SW 11.3 km/h 22.5 km/h 84 % 0 mm 0 W/m2
00:31 15.4 °C 12.7 °C 1000.6 hPa SW 12.9 km/h 22.5 km/h 84 % 0 mm 0 W/m2
00:36 15.4 °C 12.7 °C 1000.6 hPa SW 11.3 km/h 20.9 km/h 84 % 0 mm 0 W/m2
00:41 15.4 °C 12.7 °C 1000.2 hPa SW 11.3 km/h 20.9 km/h 84 % 0 mm 0 W/m2
00:46 15.4 °C 12.7 °C 1000.2 hPa WSW 12.9 km/h 20.9 km/h 84 % 0 mm 0 W/m2
00:52 15.5 °C 12.8 °C 1000.2 hPa WSW 16.1 km/h 32.2 km/h 84 % 0 mm 0 W/m2
00:53 15.4 °C 12.7 °C 1000.2 hPa WSW 16.1 km/h 32.2 km/h 84 % 0 mm 0 W/m2
00:59 15.5 °C 12.6 °C 999.9 hPa WSW 16.1 km/h 32.2 km/h 83 % 0 mm 0 W/m2
01:04 15.5 °C 12.6 °C 999.9 hPa WSW 14.5 km/h 32.2 km/h 83 % 0 mm 0 W/m2
01:09 15.4 °C 12.5 °C 999.9 hPa WSW 16.1 km/h 24.1 km/h 83 % 0 mm 0 W/m2
01:14 15.4 °C 12.5 °C 999.9 hPa WSW 16.1 km/h 25.7 km/h 83 % 0 mm 0 W/m2
01:19 15.4 °C 12.7 °C 999.5 hPa WSW 14.5 km/h 25.7 km/h 84 % 0 mm 0 W/m2
01:24 15.3 °C 12.6 °C 999.5 hPa WSW 14.5 km/h 29 km/h 84 % 0 mm 0 W/m2
01:29 15.3 °C 12.6 °C 999.5 hPa WSW 16.1 km/h 29 km/h 84 % 0 mm 0 W/m2
01:34 15.2 °C 12.7 °C 999.5 hPa WSW 14.5 km/h 30.6 km/h 85 % 0 mm 0 W/m2
01:39 15.2 °C 12.7 °C 999.5 hPa WSW 16.1 km/h 30.6 km/h 85 % 0 mm 0 W/m2
01:44 15.2 °C 12.7 °C 999.5 hPa WSW 16.1 km/h 29 km/h 85 % 0 mm 0 W/m2
01:49 15.2 °C 12.7 °C 999.5 hPa WSW 14.5 km/h 29 km/h 85 % 0 mm 0 W/m2
01:54 15.2 °C 12.7 °C 999.5 hPa WSW 14.5 km/h 25.7 km/h 85 % 0 mm 0 W/m2
01:59 15.2 °C 12.7 °C 999.5 hPa WSW 16.1 km/h 29 km/h 85 % 0 mm 0 W/m2
02:04 15.2 °C 12.7 °C 999.2 hPa WSW 16.1 km/h 29 km/h 85 % 0 mm 0 W/m2
02:09 15.2 °C 12.7 °C 999.5 hPa WSW 14.5 km/h 30.6 km/h 85 % 0 mm 0 W/m2
02:14 15.2 °C 12.5 °C 999.2 hPa West 16.1 km/h 30.6 km/h 84 % 0 mm 0 W/m2
02:19 15.1 °C 12.4 °C 999.2 hPa West 14.5 km/h 30.6 km/h 84 % 0 mm 0 W/m2
02:24 15.1 °C 12.6 °C 999.2 hPa West 14.5 km/h 25.7 km/h 85 % 0 mm 0 W/m2
02:29 15 °C 12.7 °C 999.2 hPa West 17.7 km/h 35.4 km/h 86 % 0 mm 0 W/m2
02:34 14.9 °C 12.6 °C 999.2 hPa West 19.3 km/h 35.4 km/h 86 % 0 mm 0 W/m2
02:39 14.7 °C 12.6 °C 999.2 hPa West 16.1 km/h 32.2 km/h 87 % 0.25 mm 0 W/m2
02:44 14.6 °C 12.6 °C 998.9 hPa West 17.7 km/h 35.4 km/h 88 % 0.51 mm 0 W/m2
02:49 14.4 °C 12.6 °C 998.9 hPa West 19.3 km/h 35.4 km/h 89 % 0.51 mm 0 W/m2
02:54 14.2 °C 12.4 °C 998.9 hPa West 17.7 km/h 33.8 km/h 89 % 0.51 mm 0 W/m2
02:59 14.1 °C 12.5 °C 998.9 hPa West 16.1 km/h 32.2 km/h 90 % 0.51 mm 0 W/m2
03:04 14 °C 12.6 °C 998.9 hPa West 17.7 km/h 32.2 km/h 91 % 0.76 mm 0 W/m2
03:09 13.9 °C 12.4 °C 998.9 hPa West 17.7 km/h 32.2 km/h 91 % 1.27 mm 0 W/m2
03:14 13.8 °C 12.5 °C 998.5 hPa WSW 14.5 km/h 32.2 km/h 92 % 1.52 mm 0 W/m2
03:19 13.8 °C 12.5 °C 998.5 hPa WSW 11.3 km/h 17.7 km/h 92 % 1.52 mm 0 W/m2
03:24 13.7 °C 12.4 °C 998.5 hPa WSW 9.7 km/h 17.7 km/h 92 % 1.52 mm 0 W/m2
03:29 13.6 °C 12.3 °C 998.5 hPa West 6.4 km/h 14.5 km/h 92 % 1.52 mm 0 W/m2
03:34 13.6 °C 12.3 °C 998.5 hPa West 6.4 km/h 14.5 km/h 92 % 1.52 mm 0 W/m2
03:39 13.5 °C 12.2 °C 998.5 hPa West 8 km/h 20.9 km/h 92 % 1.27 mm 0 W/m2
03:44 13.4 °C 12.1 °C 998.5 hPa West 9.7 km/h 20.9 km/h 92 % 1.02 mm 0 W/m2
03:49 13.4 °C 12.1 °C 998.5 hPa West 11.3 km/h 20.9 km/h 92 % 0.76 mm 0 W/m2
03:54 13.3 °C 12 °C 998.2 hPa West 9.7 km/h 20.9 km/h 92 % 0.76 mm 0 W/m2
03:59 13.3 °C 12 °C 998.2 hPa West 8 km/h 20.9 km/h 92 % 0.51 mm 0 W/m2
04:04 13.2 °C 11.9 °C 998.2 hPa West 8 km/h 14.5 km/h 92 % 0.51 mm 0 W/m2
04:09 13.2 °C 11.9 °C 998.2 hPa West 8 km/h 12.9 km/h 92 % 0.25 mm 0 W/m2
04:14 13.2 °C 11.9 °C 998.2 hPa West 4.8 km/h 12.9 km/h 92 % 0 mm 0 W/m2
04:19 13.1 °C 11.8 °C 998.2 hPa West 3.2 km/h 12.9 km/h 92 % 0 mm 0 W/m2
04:22 13.1 °C 11.8 °C 998.2 hPa West 4.8 km/h 16.1 km/h 92 % 0 mm 0 W/m2
04:27 13.1 °C 11.8 °C 998.2 hPa West 8 km/h 20.9 km/h 92 % 0 mm 0 W/m2
04:32 13.1 °C 11.8 °C 998.2 hPa West 9.7 km/h 20.9 km/h 92 % 0 mm 0 W/m2
04:36 13.1 °C 11.8 °C 997.9 hPa West 8 km/h 14.5 km/h 92 % 0 mm 0 W/m2
04:41 13 °C 11.7 °C 997.9 hPa West 9.7 km/h 14.5 km/h 92 % 0 mm 0 W/m2
04:46 13 °C 11.7 °C 997.9 hPa West 9.7 km/h 14.5 km/h 92 % 0 mm 0 W/m2
04:51 13 °C 11.7 °C 997.9 hPa West 8 km/h 17.7 km/h 92 % 0 mm 0 W/m2
04:56 13 °C 11.7 °C 997.9 hPa West 8 km/h 17.7 km/h 92 % 0 mm 0 W/m2
05:01 13.1 °C 11.8 °C 997.9 hPa WSW 8 km/h 16.1 km/h 92 % 0 mm 0 W/m2
05:06 13.1 °C 11.8 °C 997.9 hPa West 8 km/h 14.5 km/h 92 % 0 mm 0 W/m2
05:11 13.1 °C 11.8 °C 997.9 hPa West 6.4 km/h 14.5 km/h 92 % 0 mm 0 W/m2
05:16 13.1 °C 12 °C 997.9 hPa WNW 6.4 km/h 14.5 km/h 93 % 0 mm 0 W/m2
05:21 13.1 °C 12 °C 997.9 hPa West 4.8 km/h 14.5 km/h 93 % 0 mm 0 W/m2
05:26 13.1 °C 12 °C 997.9 hPa WSW 3.2 km/h 11.3 km/h 93 % 0 mm 0 W/m2
05:31 13 °C 11.9 °C 997.5 hPa WSW 4.8 km/h 12.9 km/h 93 % 0 mm 0 W/m2
05:36 13 °C 11.9 °C 997.5 hPa WSW 4.8 km/h 12.9 km/h 93 % 0 mm 0 W/m2
05:41 12.9 °C 11.8 °C 997.5 hPa WSW 4.8 km/h 11.3 km/h 93 % 0 mm 0 W/m2
05:46 12.9 °C 11.8 °C 997.5 hPa WSW 4.8 km/h 11.3 km/h 93 % 0 mm 0 W/m2
05:51 12.9 °C 11.8 °C 997.5 hPa WSW 4.8 km/h 11.3 km/h 93 % 0 mm 0 W/m2
05:56 12.9 °C 11.8 °C 997.5 hPa WSW 4.8 km/h 9.7 km/h 93 % 0 mm 0 W/m2
06:01 12.9 °C 11.8 °C 997.2 hPa WSW 1.6 km/h 9.7 km/h 93 % 0 mm 0 W/m2
06:06 12.8 °C 11.7 °C 997.2 hPa WSW 1.6 km/h 9.7 km/h 93 % 0 mm 0 W/m2
06:11 12.8 °C 11.7 °C 997.2 hPa WSW 1.6 km/h 9.7 km/h 93 % 0 mm 0 W/m2
06:16 12.8 °C 11.7 °C 997.2 hPa SW 1.6 km/h 8 km/h 93 % 0 mm 0 W/m2
06:21 12.8 °C 11.7 °C 997.2 hPa SW 1.6 km/h 8 km/h 93 % 0 mm 0 W/m2
06:26 12.8 °C 11.7 °C 997.2 hPa SW 3.2 km/h 12.9 km/h 93 % 0 mm 0 W/m2
06:32 12.8 °C 11.7 °C 997.2 hPa SSW 3.2 km/h 12.9 km/h 93 % 0 mm 0 W/m2
06:36 12.7 °C 11.6 °C 997.2 hPa SSW 1.6 km/h 9.7 km/h 93 % 0 mm 0 W/m2
06:41 12.7 °C 11.4 °C 997.2 hPa SSW 1.6 km/h 11.3 km/h 92 % 0 mm 5 W/m2
06:46 12.7 °C 11.4 °C 997.2 hPa SW 1.6 km/h 11.3 km/h 92 % 0 mm 5 W/m2
06:52 12.7 °C 11.4 °C 997.2 hPa SSE 1.6 km/h 8 km/h 92 % 0 mm 7 W/m2
06:57 12.7 °C 11.4 °C 997.2 hPa SE 1.6 km/h 8 km/h 92 % 0 mm 9 W/m2
07:02 12.8 °C 11.6 °C 997.2 hPa SE 1.6 km/h 6.4 km/h 92 % 0 mm 11 W/m2
07:07 12.8 °C 11.6 °C 997.2 hPa Calm   4.8 km/h 92 % 0 mm 11 W/m2
07:12 12.8 °C 11.6 °C 997.2 hPa Calm     92 % 0 mm 9 W/m2
07:22 12.8 °C 11.6 °C 997.2 hPa SSE 3.2 km/h 9.7 km/h 92 % 0 mm 12 W/m2
07:27 12.8 °C 11.6 °C 997.2 hPa SSW 3.2 km/h 11.3 km/h 92 % 0 mm 9 W/m2
07:32 12.8 °C 11.6 °C 997.2 hPa SW 3.2 km/h 11.3 km/h 92 % 0 mm 11 W/m2
07:37 12.8 °C 11.6 °C 997.2 hPa SW 3.2 km/h 8 km/h 92 % 0 mm 16 W/m2
07:42 12.8 °C 11.6 °C 996.8 hPa SW 3.2 km/h 8 km/h 92 % 0 mm 21 W/m2
07:53 12.8 °C 11.6 °C 997.2 hPa West 12.9 km/h 25.7 km/h 92 % 0.25 mm 11 W/m2
07:58 12.6 °C 11.2 °C 997.2 hPa WNW 17.7 km/h 32.2 km/h 91 % 0.51 mm 12 W/m2
08:03 12.3 °C 10.9 °C 997.2 hPa West 16.1 km/h 32.2 km/h 91 % 1.02 mm 21 W/m2
08:08 12.1 °C 10.7 °C 996.8 hPa West 14.5 km/h 25.7 km/h 91 % 1.27 mm 40 W/m2
08:13 11.8 °C 10.4 °C 996.8 hPa West 14.5 km/h 25.7 km/h 91 % 1.52 mm 49 W/m2
08:18 11.7 °C 10.4 °C 996.8 hPa West 11.3 km/h 20.9 km/h 92 % 1.52 mm 46 W/m2
08:23 11.7 °C 10.4 °C 996.8 hPa West 8 km/h 16.1 km/h 92 % 1.52 mm 46 W/m2
08:28 11.6 °C 10.3 °C 996.8 hPa West 6.4 km/h 12.9 km/h 92 % 1.52 mm 47 W/m2
08:33 11.6 °C 10.3 °C 997.2 hPa WSW 6.4 km/h 12.9 km/h 92 % 1.52 mm 53 W/m2
08:37 11.6 °C 10.5 °C 996.8 hPa WSW 6.4 km/h 14.5 km/h 93 % 1.52 mm 65 W/m2
08:42 11.6 °C 10.5 °C 996.8 hPa West 8 km/h 14.5 km/h 93 % 1.52 mm 81 W/m2
08:47 11.7 °C 10.6 °C 996.8 hPa West 6.4 km/h 12.9 km/h 93 % 1.52 mm 54 W/m2
08:52 11.8 °C 10.7 °C 996.8 hPa WSW 6.4 km/h 14.5 km/h 93 % 1.52 mm 51 W/m2
08:57 11.8 °C 10.7 °C 996.5 hPa WSW 6.4 km/h 14.5 km/h 93 % 1.02 mm 49 W/m2
09:02 11.9 °C 10.8 °C 996.5 hPa WSW 6.4 km/h 14.5 km/h 93 % 0.51 mm 54 W/m2
09:07 11.9 °C 10.8 °C 996.5 hPa WSW 8 km/h 14.5 km/h 93 % 0.51 mm 46 W/m2
09:12 11.9 °C 10.7 °C 996.5 hPa WSW 9.7 km/h 19.3 km/h 92 % 0.25 mm 49 W/m2
09:17 11.8 °C 10.6 °C 996.5 hPa WSW 9.7 km/h 19.3 km/h 92 % 0.25 mm 44 W/m2
09:22 11.8 °C 10.4 °C 996.5 hPa WSW 9.7 km/h 16.1 km/h 91 % 0.25 mm 69 W/m2
09:27 11.8 °C 10.4 °C 996.5 hPa WSW 9.7 km/h 16.1 km/h 91 % 0.51 mm 72 W/m2
09:32 11.7 °C 10.3 °C 996.5 hPa West 9.7 km/h 20.9 km/h 91 % 0.51 mm 95 W/m2
09:37 11.7 °C 10.1 °C 996.5 hPa West 9.7 km/h 20.9 km/h 90 % 0.51 mm 107 W/m2
09:42 11.8 °C 10.4 °C 996.5 hPa West 8 km/h 17.7 km/h 91 % 0.51 mm 107 W/m2
09:47 11.8 °C 10.2 °C 996.8 hPa West 8 km/h 16.1 km/h 90 % 0.51 mm 134 W/m2
09:52 11.9 °C 10.5 °C 996.8 hPa West 8 km/h 16.1 km/h 91 % 0.25 mm 186 W/m2
09:57 12.1 °C 10.7 °C 996.5 hPa West 6.4 km/h 14.5 km/h 91 % 0.25 mm 510 W/m2
10:02 12.3 °C 10.9 °C 996.5 hPa WSW 6.4 km/h 12.9 km/h 91 % 0.25 mm 545 W/m2
10:07 12.8 °C 11.2 °C 996.5 hPa WSW 8 km/h 17.7 km/h 90 % 0.25 mm 585 W/m2
10:12 13.2 °C 11.6 °C 996.5 hPa WSW 8 km/h 17.7 km/h 90 % 0.25 mm 650 W/m2
10:17 13.4 °C 11.6 °C 996.8 hPa SW 4.8 km/h 14.5 km/h 89 % 0.25 mm 417 W/m2
10:22 13.7 °C 11.9 °C 996.8 hPa WSW 4.8 km/h 14.5 km/h 89 % 0.25 mm 475 W/m2
10:27 14 °C 12.2 °C 996.5 hPa West 8 km/h 17.7 km/h 89 % 0 mm 591 W/m2
10:32 14.2 °C 12.1 °C 996.5 hPa West 12.9 km/h 32.2 km/h 87 % 0 mm 582 W/m2
10:37 14.3 °C 11.8 °C 996.5 hPa West 16.1 km/h 32.2 km/h 85 % 0 mm 621 W/m2
10:42 14.5 °C 11.8 °C 996.5 hPa WSW 16.1 km/h 30.6 km/h 84 % 0 mm 615 W/m2
10:48 14.6 °C 11.9 °C 996.5 hPa WSW 17.7 km/h 30.6 km/h 84 % 0 mm 700 W/m2
10:53 14.8 °C 11.9 °C 996.5 hPa WSW 17.7 km/h 25.7 km/h 83 % 0 mm 768 W/m2
10:58 15.1 °C 12.2 °C 996.5 hPa WSW 16.1 km/h 25.7 km/h 83 % 0 mm 441 W/m2
11:03 15.3 °C 12.4 °C 996.2 hPa West 14.5 km/h 25.7 km/h 83 % 0 mm 575 W/m2
11:08 15.5 °C 12.3 °C 996.2 hPa West 12.9 km/h 20.9 km/h 81 % 0 mm 591 W/m2
11:13 15.5 °C 11.9 °C 996.2 hPa WSW 14.5 km/h 22.5 km/h 79 % 0 mm 309 W/m2
11:18 15.4 °C 11.9 °C 996.2 hPa WSW 14.5 km/h 22.5 km/h 80 % 0 mm 236 W/m2
11:23 15.4 °C 11.8 °C 996.2 hPa West 14.5 km/h 25.7 km/h 79 % 0 mm 135 W/m2
11:28 15.3 °C 11.9 °C 996.2 hPa West 16.1 km/h 30.6 km/h 80 % 0 mm 116 W/m2
11:33 14.8 °C 11.8 °C 996.2 hPa WNW 16.1 km/h 30.6 km/h 82 % 0 mm 90 W/m2
11:38 14.2 °C 11.3 °C 996.2 hPa WNW 16.1 km/h 33.8 km/h 83 % 0.25 mm 63 W/m2
11:43 13.8 °C 11.3 °C 996.2 hPa WNW 14.5 km/h 33.8 km/h 85 % 0.51 mm 49 W/m2
11:48 13.3 °C 11 °C 996.2 hPa WNW 11.3 km/h 25.7 km/h 86 % 1.02 mm 125 W/m2
11:53 13 °C 11.1 °C 995.8 hPa WNW 11.3 km/h 25.7 km/h 88 % 1.02 mm 218 W/m2
11:58 12.9 °C 11.1 °C 995.8 hPa West 11.3 km/h 20.9 km/h 89 % 1.02 mm 183 W/m2
12:03 13.2 °C 11.9 °C 995.8 hPa West 9.7 km/h 16.1 km/h 92 % 1.02 mm 661 W/m2
12:08 13.5 °C 12.2 °C 995.8 hPa West 8 km/h 17.7 km/h 92 % 1.02 mm 687 W/m2
12:13 13.7 °C 12.1 °C 995.8 hPa West 9.7 km/h 24.1 km/h 90 % 1.02 mm 250 W/m2
12:18 13.9 °C 11.9 °C 995.8 hPa West 11.3 km/h 24.1 km/h 88 % 1.02 mm 294 W/m2
12:23 14 °C 11.9 °C 995.8 hPa West 12.9 km/h 20.9 km/h 87 % 1.02 mm 248 W/m2
12:28 14.1 °C 11.8 °C 995.8 hPa WSW 12.9 km/h 22.5 km/h 86 % 1.02 mm 506 W/m2
12:33 14.4 °C 12.1 °C 995.5 hPa West 12.9 km/h 22.5 km/h 86 % 1.02 mm 664 W/m2
12:38 14.8 °C 12.3 °C 995.5 hPa West 11.3 km/h 22.5 km/h 85 % 0.76 mm 698 W/m2
12:43 15.3 °C 12.2 °C 995.5 hPa West 12.9 km/h 22.5 km/h 82 % 0.25 mm 738 W/m2
12:48 15.7 °C 12.6 °C 995.1 hPa West 12.9 km/h 22.5 km/h 82 % 0 mm 791 W/m2
12:53 16.1 °C 12.4 °C 995.1 hPa West 12.9 km/h 22.5 km/h 79 % 0 mm 879 W/m2
12:58 16.4 °C 12.3 °C 995.1 hPa WNW 12.9 km/h 22.5 km/h 77 % 0 mm 838 W/m2
13:03 16.8 °C 12.6 °C 995.1 hPa WNW 14.5 km/h 25.7 km/h 76 % 0 mm 763 W/m2
13:08 16.8 °C 11.7 °C 995.1 hPa WNW 16.1 km/h 25.7 km/h 72 % 0 mm 812 W/m2
13:13 16.9 °C 11.8 °C 995.1 hPa WNW 16.1 km/h 24.1 km/h 72 % 0 mm 798 W/m2
13:18 17 °C 11.7 °C 995.1 hPa West 17.7 km/h 30.6 km/h 71 % 0 mm 846 W/m2
13:23 17.1 °C 11.6 °C 995.1 hPa West 17.7 km/h 30.6 km/h 70 % 0 mm 359 W/m2
13:29 16.8 °C 11.1 °C 995.1 hPa West 17.7 km/h 29 km/h 69 % 0 mm 211 W/m2
13:34 16.3 °C 11.2 °C 995.1 hPa West 17.7 km/h 35.4 km/h 72 % 0 mm 128 W/m2
13:39 15.7 °C 10.9 °C 995.5 hPa West 17.7 km/h 35.4 km/h 73 % 0 mm 186 W/m2
13:44 15.4 °C 11.2 °C 995.1 hPa West 16.1 km/h 32.2 km/h 76 % 0 mm 352 W/m2
13:49 15.2 °C 11 °C 995.1 hPa West 14.5 km/h 32.2 km/h 76 % 0 mm 299 W/m2
13:54 15.4 °C 11.6 °C 995.1 hPa West 12.9 km/h 20.9 km/h 78 % 0 mm 805 W/m2
13:59 15.9 °C 11.9 °C 994.8 hPa West 12.9 km/h 19.3 km/h 77 % 0 mm 726 W/m2
14:04 16.1 °C 11.7 °C 994.8 hPa West 12.9 km/h 22.5 km/h 75 % 0 mm 216 W/m2
14:09 16.1 °C 11.4 °C 994.8 hPa West 16.1 km/h 29 km/h 74 % 0 mm 306 W/m2
14:14 16.4 °C 11.9 °C 994.8 hPa West 19.3 km/h 35.4 km/h 75 % 0 mm 777 W/m2
14:19 16.9 °C 12.2 °C 994.8 hPa West 19.3 km/h 35.4 km/h 74 % 0 mm 735 W/m2
14:24 17.2 °C 11.4 °C 994.5 hPa West 19.3 km/h 40.2 km/h 69 % 0 mm 722 W/m2
14:29 17.3 °C 10.7 °C 994.8 hPa West 24.1 km/h 40.2 km/h 65 % 0 mm 719 W/m2
14:34 17.4 °C 11 °C 994.5 hPa West 22.5 km/h 38.6 km/h 66 % 0 mm 673 W/m2
14:39 17.4 °C 10.7 °C 994.5 hPa West 19.3 km/h 32.2 km/h 65 % 0 mm 691 W/m2
14:44 17.4 °C 10.7 °C 994.5 hPa West 17.7 km/h 30.6 km/h 65 % 0 mm 675 W/m2
14:49 17.7 °C 10.8 °C 994.8 hPa West 19.3 km/h 33.8 km/h 64 % 0 mm 782 W/m2
14:54 17.9 °C 11.2 °C 994.5 hPa West 19.3 km/h 33.8 km/h 65 % 0 mm 749 W/m2
14:59 17.9 °C 11.7 °C 994.5 hPa WSW 14.5 km/h 29 km/h 67 % 0 mm 668 W/m2
15:04 18.3 °C 11.6 °C 994.5 hPa West 14.5 km/h 30.6 km/h 65 % 0 mm 647 W/m2
15:09 18.3 °C 10.9 °C 994.5 hPa West 17.7 km/h 32.2 km/h 62 % 0 mm 608 W/m2
15:14 18.1 °C 10.4 °C 994.5 hPa West 19.3 km/h 37 km/h 61 % 0 mm 608 W/m2
15:19 18 °C 10.1 °C 994.1 hPa West 20.9 km/h 37 km/h 60 % 0 mm 649 W/m2
15:24 17.9 °C 10.3 °C 994.1 hPa WSW 20.9 km/h 35.4 km/h 61 % 0 mm 705 W/m2
15:29 18.1 °C 10.7 °C 994.1 hPa WSW 19.3 km/h 32.2 km/h 62 % 0 mm 649 W/m2
15:34 18.1 °C 10.7 °C 994.1 hPa West 19.3 km/h 30.6 km/h 62 % 0 mm 629 W/m2
15:39 18.1 °C 10.9 °C 994.1 hPa West 17.7 km/h 33.8 km/h 63 % 0 mm 179 W/m2
15:45 18 °C 10.8 °C 994.1 hPa WNW 19.3 km/h 33.8 km/h 63 % 0 mm 158 W/m2
15:50 17.6 °C 10.7 °C 994.1 hPa WNW 19.3 km/h 33.8 km/h 64 % 0 mm 200 W/m2
15:55 17.4 °C 11 °C 994.1 hPa WNW 17.7 km/h 33.8 km/h 66 % 0 mm 670 W/m2
16:00 17.6 °C 10.9 °C 994.1 hPa West 17.7 km/h 33.8 km/h 65 % 0 mm 260 W/m2
16:05 17.5 °C 10.8 °C 994.5 hPa West 17.7 km/h 33.8 km/h 65 % 0 mm 520 W/m2
16:10 17.2 °C 10.8 °C 994.1 hPa West 16.1 km/h 30.6 km/h 66 % 0 mm 192 W/m2
16:15 16.9 °C 10.5 °C 994.1 hPa West 16.1 km/h 25.7 km/h 66 % 0 mm 137 W/m2
16:20 16.6 °C 10.7 °C 994.1 hPa West 14.5 km/h 25.7 km/h 68 % 0 mm 97 W/m2
16:25 16.4 °C 10.3 °C 994.1 hPa West 14.5 km/h 29 km/h 67 % 0 mm 123 W/m2
16:30 16.3 °C 10.2 °C 994.1 hPa WNW 16.1 km/h 29 km/h 67 % 0 mm 176 W/m2
16:35 16.3 °C 10.6 °C 994.1 hPa WNW 14.5 km/h 25.7 km/h 69 % 0 mm 176 W/m2
16:40 16.2 °C 10.3 °C 994.1 hPa WNW 14.5 km/h 29 km/h 68 % 0 mm 162 W/m2
16:45 16.1 °C 10.2 °C 994.1 hPa West 16.1 km/h 29 km/h 68 % 0 mm 181 W/m2
16:50 16 °C 9.9 °C 994.1 hPa West 16.1 km/h 33.8 km/h 67 % 0 mm 190 W/m2
16:55 16 °C 10.1 °C 994.1 hPa West 16.1 km/h 35.4 km/h 68 % 0 mm 199 W/m2
17:00 16 °C 9.9 °C 994.1 hPa West 16.1 km/h 35.4 km/h 67 % 0 mm 176 W/m2
17:05 16 °C 9.9 °C 994.1 hPa WNW 17.7 km/h 30.6 km/h 67 % 0 mm 142 W/m2
17:10 15.9 °C 9.8 °C 994.1 hPa West 19.3 km/h 37 km/h 67 % 0 mm 156 W/m2
17:15 15.8 °C 9.7 °C 994.1 hPa West 20.9 km/h 37 km/h 67 % 0 mm 135 W/m2
17:20 15.9 °C 10 °C 994.1 hPa West 16.1 km/h 30.6 km/h 68 % 0 mm 104 W/m2
17:25 15.9 °C 10 °C 994.1 hPa WNW 14.5 km/h 29 km/h 68 % 0 mm 81 W/m2
17:30 15.8 °C 10.1 °C 994.1 hPa WNW 17.7 km/h 37 km/h 69 % 0 mm 178 W/m2
17:35 15.8 °C 10.3 °C 994.1 hPa WNW 17.7 km/h 37 km/h 70 % 0 mm 146 W/m2
17:40 15.7 °C 10.4 °C 994.1 hPa WNW 12.9 km/h 24.1 km/h 71 % 0 mm 327 W/m2
17:45 15.9 °C 10.8 °C 993.8 hPa WNW 12.9 km/h 22.5 km/h 72 % 0 mm 160 W/m2
17:50 16.1 °C 10.6 °C 994.1 hPa WNW 14.5 km/h 24.1 km/h 70 % 0 mm 255 W/m2
17:55 16.2 °C 10.5 °C 994.1 hPa West 14.5 km/h 25.7 km/h 69 % 0 mm 278 W/m2
18:00 16.3 °C 10.8 °C 993.8 hPa West 12.9 km/h 25.7 km/h 70 % 0 mm 77 W/m2
18:01 16.2 °C 10.7 °C 993.8 hPa West 12.9 km/h 25.7 km/h 70 % 0 mm 77 W/m2
18:06 16 °C 10.3 °C 994.1 hPa WNW 14.5 km/h 25.7 km/h 69 % 0 mm 72 W/m2
18:11 15.8 °C 10.6 °C 994.1 hPa West 16.1 km/h 25.7 km/h 71 % 0 mm 118 W/m2
18:16 15.8 °C 10.8 °C 994.1 hPa West 12.9 km/h 25.7 km/h 72 % 0 mm 90 W/m2
18:21 15.7 °C 10.7 °C 994.1 hPa West 8 km/h 19.3 km/h 72 % 0 mm 69 W/m2
18:26 15.6 °C 10.6 °C 994.1 hPa WNW 8 km/h 14.5 km/h 72 % 0 mm 58 W/m2
18:31 15.5 °C 10.4 °C 994.1 hPa West 9.7 km/h 20.9 km/h 72 % 0 mm 51 W/m2
18:36 15.4 °C 10.4 °C 994.1 hPa West 11.3 km/h 20.9 km/h 72 % 0 mm 105 W/m2
18:41 15.5 °C 10.7 °C 993.8 hPa West 11.3 km/h 19.3 km/h 73 % 0 mm 49 W/m2
18:46 15.4 °C 10.4 °C 993.8 hPa West 9.7 km/h 17.7 km/h 72 % 0 mm 28 W/m2
18:51 15.2 °C 10.2 °C 993.8 hPa West 11.3 km/h 17.7 km/h 72 % 0 mm 28 W/m2
18:56 15 °C 10.2 °C 993.8 hPa West 9.7 km/h 16.1 km/h 73 % 0 mm 30 W/m2
19:01 14.8 °C 10.2 °C 993.8 hPa West 9.7 km/h 17.7 km/h 74 % 0 mm 25 W/m2
19:06 14.7 °C 10.3 °C 993.8 hPa West 9.7 km/h 17.7 km/h 75 % 0 mm 19 W/m2
19:11 14.6 °C 10.2 °C 993.8 hPa West 6.4 km/h 14.5 km/h 75 % 0 mm 16 W/m2
19:16 14.4 °C 10.2 °C 993.8 hPa West 6.4 km/h 16.1 km/h 76 % 0 mm 16 W/m2
19:21 14.3 °C 10.1 °C 993.8 hPa West 8 km/h 16.1 km/h 76 % 0 mm 12 W/m2
19:26 14.2 °C 10.2 °C 993.8 hPa West 8 km/h 14.5 km/h 77 % 0 mm 5 W/m2
19:31 14.2 °C 10.2 °C 993.5 hPa WSW 6.4 km/h 14.5 km/h 77 % 0 mm 5 W/m2
19:36 14.1 °C 10.1 °C 993.5 hPa WSW 6.4 km/h 12.9 km/h 77 % 0 mm 0 W/m2
19:41 14.1 °C 10.1 °C 993.5 hPa West 8 km/h 12.9 km/h 77 % 0 mm 0 W/m2
19:46 14 °C 10.1 °C 993.8 hPa WSW 9.7 km/h 19.3 km/h 77 % 0 mm 0 W/m2
19:51 13.9 °C 9.9 °C 993.8 hPa WSW 9.7 km/h 19.3 km/h 77 % 0 mm 0 W/m2
19:57 13.8 °C 10.1 °C 993.8 hPa WSW 11.3 km/h 19.3 km/h 78 % 0 mm 0 W/m2
20:02 13.8 °C 10.1 °C 993.8 hPa WSW 11.3 km/h 19.3 km/h 78 % 0 mm 0 W/m2
20:07 13.6 °C 9.8 °C 993.8 hPa WSW 9.7 km/h 17.7 km/h 78 % 0 mm 0 W/m2
20:12 13.5 °C 9.7 °C 993.8 hPa WSW 9.7 km/h 17.7 km/h 78 % 0 mm 0 W/m2
20:17 13.4 °C 9.8 °C 993.8 hPa WSW 9.7 km/h 16.1 km/h 79 % 0 mm 0 W/m2
20:22 13.3 °C 9.7 °C 994.1 hPa WSW 11.3 km/h 17.7 km/h 79 % 0 mm 0 W/m2
20:27 13.2 °C 9.6 °C 994.1 hPa WSW 11.3 km/h 17.7 km/h 79 % 0 mm 0 W/m2
20:32 13.2 °C 9.6 °C 993.8 hPa WSW 11.3 km/h 19.3 km/h 79 % 0 mm 0 W/m2
20:37 13.2 °C 9.6 °C 993.8 hPa WSW 11.3 km/h 19.3 km/h 79 % 0 mm 0 W/m2
20:42 13.1 °C 9.7 °C 993.8 hPa West 11.3 km/h 19.3 km/h 80 % 0 mm 0 W/m2
20:47 13.1 °C 9.7 °C 993.8 hPa West 11.3 km/h 19.3 km/h 80 % 0 mm 0 W/m2
20:52 12.9 °C 9.7 °C 993.8 hPa West 9.7 km/h 16.1 km/h 81 % 0 mm 0 W/m2
20:57 12.9 °C 9.7 °C 993.8 hPa West 11.3 km/h 19.3 km/h 81 % 0 mm 0 W/m2
21:02 12.8 °C 9.8 °C 993.8 hPa West 12.9 km/h 29 km/h 82 % 0 mm 0 W/m2
21:07 12.8 °C 10 °C 993.8 hPa West 14.5 km/h 29 km/h 83 % 0 mm 0 W/m2
21:12 12.8 °C 10 °C 993.8 hPa West 14.5 km/h 25.7 km/h 83 % 0 mm 0 W/m2
21:17 12.7 °C 9.9 °C 993.8 hPa West 12.9 km/h 25.7 km/h 83 % 0 mm 0 W/m2
21:22 12.7 °C 9.9 °C 993.8 hPa West 11.3 km/h 19.3 km/h 83 % 0 mm 0 W/m2
21:27 12.6 °C 9.9 °C 993.8 hPa West 11.3 km/h 16.1 km/h 84 % 0 mm 0 W/m2
21:32 12.5 °C 9.9 °C 993.8 hPa West 11.3 km/h 19.3 km/h 84 % 0 mm 0 W/m2
21:37 12.5 °C 9.9 °C 993.8 hPa West 11.3 km/h 19.3 km/h 84 % 0 mm 0 W/m2
21:42 12.5 °C 10.1 °C 993.8 hPa West 12.9 km/h 19.3 km/h 85 % 0 mm 0 W/m2
21:47 12.6 °C 10.2 °C 993.8 hPa West 12.9 km/h 19.3 km/h 85 % 0 mm 0 W/m2
21:52 12.6 °C 10.2 °C 993.8 hPa West 12.9 km/h 19.3 km/h 85 % 0 mm 0 W/m2
21:57 12.6 °C 10.2 °C 994.1 hPa West 12.9 km/h 20.9 km/h 85 % 0 mm 0 W/m2
22:02 12.6 °C 10.2 °C 994.1 hPa West 11.3 km/h 20.9 km/h 85 % 0 mm 0 W/m2
22:07 12.5 °C 10.2 °C 994.1 hPa West 9.7 km/h 16.1 km/h 86 % 0 mm 0 W/m2
22:12 12.4 °C 10.1 °C 993.8 hPa West 8 km/h 14.5 km/h 86 % 0 mm 0 W/m2
22:17 12.4 °C 10.1 °C 994.1 hPa West 8 km/h 16.1 km/h 86 % 0 mm 0 W/m2
22:22 12.3 °C 10 °C 994.1 hPa West 8 km/h 16.1 km/h 86 % 0 mm 0 W/m2
22:27 12.3 °C 10 °C 994.1 hPa West 8 km/h 14.5 km/h 86 % 0 mm 0 W/m2
22:32 12.2 °C 9.9 °C 994.1 hPa WSW 8 km/h 14.5 km/h 86 % 0 mm 0 W/m2
22:37 12.1 °C 9.8 °C 994.1 hPa West 6.4 km/h 11.3 km/h 86 % 0 mm 0 W/m2
22:42 12.1 °C 9.8 °C 994.1 hPa West 8 km/h 16.1 km/h 86 % 0 mm 0 W/m2
22:47 12.1 °C 9.7 °C 994.1 hPa West 9.7 km/h 16.1 km/h 85 % 0 mm 0 W/m2
22:52 12.1 °C 9.7 °C 994.1 hPa West 9.7 km/h 16.1 km/h 85 % 0 mm 0 W/m2
22:57 12 °C 9.7 °C 994.1 hPa West 8 km/h 12.9 km/h 86 % 0 mm 0 W/m2
23:02 12 °C 9.6 °C 994.1 hPa West 4.8 km/h 11.3 km/h 85 % 0 mm 0 W/m2
23:07 11.9 °C 9.6 °C 994.1 hPa West 6.4 km/h 12.9 km/h 86 % 0 mm 0 W/m2
23:12 11.9 °C 9.6 °C 994.1 hPa West 6.4 km/h 12.9 km/h 86 % 0 mm 0 W/m2
23:17 11.9 °C 9.6 °C 993.8 hPa West 6.4 km/h 14.5 km/h 86 % 0 mm 0 W/m2
23:22 11.9 °C 9.8 °C 994.1 hPa West 9.7 km/h 14.5 km/h 87 % 0 mm 0 W/m2
23:27 11.9 °C 9.8 °C 993.8 hPa West 9.7 km/h 16.1 km/h 87 % 0 mm 0 W/m2
23:32 11.9 °C 9.8 °C 993.8 hPa West 8 km/h 16.1 km/h 87 % 0 mm 0 W/m2
23:37 11.9 °C 9.8 °C 993.8 hPa West 8 km/h 14.5 km/h 87 % 0 mm 0 W/m2
23:42 11.9 °C 9.8 °C 993.8 hPa West 9.7 km/h 14.5 km/h 87 % 0 mm 0 W/m2
23:48 11.9 °C 9.8 °C 993.8 hPa West 9.7 km/h 16.1 km/h 87 % 0 mm 0 W/m2
23:53 11.9 °C 9.8 °C 993.8 hPa West 9.7 km/h 16.1 km/h 87 % 0 mm 0 W/m2
23:58 11.8 °C 9.7 °C 993.8 hPa West 9.7 km/h 16.1 km/h 87 % 0 mm 0 W/m2
Delerius-Weather
Compliments of Weather Underground - 2.25 mb

Data updates at regular intervals.